Regional Weather Roundup
Issued by NWS

Home | Current Version | Previous Version | Text Only | Print | Product List | Glossary On
Versions: 1 2 3 4 5 6 7 8 9 10 11 12 13 14 15 16 17 18 19 20 21 22 23 24 25 26 27 28 29 30 31 32 33 34 35 36 37 38 39 40 41 42 43 44 45 46 47 48 49 50
663
ASUS44 KFWD 262115
RWRTX
NORTH TEXAS HOURLY WEATHER ROUNDUP
NATIONAL WEATHER SERVICE FORT WORTH TX
400 PM CDT SAT MAY 26 2018

NOTE: "FAIR" INDICATES FEW OR NO CLOUDS BELOW 12,000 FEET WITH NO
SIGNIFICANT WEATHER AND/OR OBSTRUCTIONS TO VISIBILITY.

TXZ118-119-262200-
DALLAS/FORT WORTH METROPLEX

CITY           SKY/WX    TMP DP  RH WIND       PRES   REMARKS
DFW AIRPORT    FAIR      95  67  39 SE10      29.75F HX  99
DALLAS LOVE    PTSUNNY   96  68  39 SE8       29.76F HX 101
FTW MEACHAM    FAIR      98  64  32 CALM      29.76F HX 100
DAL-EXECUTIVE  FAIR      96  67  38 SE7       29.76F HX 100
FTW-ALLIANCE   FAIR      96  63  33 CALM      29.76F HX  97
FTW-NAS-JRB    PTSUNNY   97  62  31 SE7       29.76F HX  98
FTW-SPINKS     SUNNY     95  64  36 SE3       29.79F HX  97
ARLINGTON      FAIR      96  58  27 S6        29.77F HX  95
GRAND PRAIRIE  SUNNY     97  55  24 CALM      29.78F HX  95
ADDISON        SUNNY     95  57  28 E3        29.77F HX  94
MESQUITE       MOSUNNY   91  64  40 SE6       29.78F HX  93
LANCASTER      FAIR      90  71  53 SE7       29.78F HX  96
$$

TXZ091>094-102>105-117-120-121-131>134-262200-
NORTH CENTRAL TEXAS

CITY           SKY/WX    TMP DP  RH WIND       PRES   REMARKS
SHRMAN/DENISON FAIR      94  66  40 SE7       29.80F HX  96
GAINESVILLE    FAIR      91  66  43 SE5       29.80F HX  93
BOWIE          FAIR      92  65  39 SE3       29.80F HX  94
BRIDGEPORT     FAIR      96  63  34 S5        29.79F HX  97
DECATUR        FAIR      96  63  33 S6        29.78F HX  97
DENTON         FAIR      96  65  35 E6        29.76F HX  98
MCKINNEY       FAIR      90  65  43 E5        29.78F HX  92
BONHAM         FAIR      91  65  42 S8        29.79F HX  93
GREENVILLE     FAIR      95  64  36 S8        29.79F HX  97
ROCKWALL       FAIR      91  68  46 S3        29.79F HX  94
TERRELL        FAIR      93  64  38 CALM      29.78F HX  94
WAXAHACHIE     FAIR      94  70  45 CALM      29.79F HX 100
CLEBURNE       FAIR      95  64  36 E8        29.80F HX  97
GRANBURY       FAIR      99  60  27 S8        29.78F HX  99
$$

TXZ083>090-098>101-113>116-127>130-139>142-154-155-262200-
WESTERN NORTH TEXAS

CITY           SKY/WX    TMP DP  RH WIND       PRES   REMARKS
WICHITA FALLS  FAIR      93  66  40 E7        29.78F HX  96
WF-KICKAPOO    FAIR      94  65  38 NE5       29.80F HX  96
VERNON         FAIR      95  63  34 S7        29.79F HX  96
ABILENE        FAIR     100  60  26 SW10      29.78F HX 100
ABILENE-DYESS  FAIR     101  55  21 SE9       29.78F HX  99
BRECKENRIDGE   FAIR     101  59  25 S7        29.76F HX 101
CISCO          FAIR      97  63  32 S8G17     29.81F HX  98
EASTLAND       FAIR      96  68  39 SE12      29.79F HX 100
RANGER         FAIR      95  65  37 SE9G16    29.81F HX  97
MINERAL WELLS  FAIR      95  65  37 W5        29.77F HX  97
STEPHENVILLE   FAIR      94  67  40 E8        29.83F HX  97
COMANCHE       FAIR      96  64  34 SE5       29.81F HX  98
BROWNWOOD      LGT RAIN  97  63  32 E12       29.79F HX  98
COLEMAN        FAIR     103  50  17 S8G20     29.79F HX  99
BRADY          FAIR      99  55  23 SE10G17   29.81F HX  97
$$

TXZ143>147-156>162-174-175-262200-
CENTRAL TEXAS

CITY           SKY/WX    TMP DP  RH WIND       PRES   REMARKS
WACO           FAIR      97  61  30 S5        29.76F HX  97
WACO-TSTC      SUNNY     99  63  30 SE7       29.77F HX 100
WACO-MCGREGOR  FAIR      98  63  31 VRB3      29.77F HX 100
HILLSBORO      FAIR      95  67  39 SE5       29.78F HX  98
MEXIA          FAIR      92  69  45 SW3       29.77F HX  97
HEARNE         FAIR      94  70  46 S9        29.78F HX  99
CAMERON        FAIR      94  72  47 S5        29.78F HX 102
TEMPLE         FAIR      95  68  41 VRB3      29.78F HAZE    HX  99
KILLEEN        FAIR      96  67  39 SE10      29.77F HX  99
KILLEEN-SKYLRK FAIR      97  68  38 SE12      29.78F HX 102
FORT HOOD      FAIR      96  65  36 E10       29.74F HX  99
GATESVILLE     FAIR      97  64  34 SE5       29.80F HX  99
HAMILTON       FAIR      94  64  37 SE7       29.82F HX  96
LAMPASAS       FAIR      95  62  34 SE8       29.79F HX  95
$$

TXZ095>097-106>112-122>126-135>138-148>153-164>167-262200-
EAST TEXAS

CITY           SKY/WX    TMP DP  RH WIND       PRES   REMARKS
PARIS          FAIR      91  67  44 E6        29.80F HX  94
SULPHUR SPRNGS FAIR      94  65  39 CALM      29.80F HX  96
MOUNT PLEASANT FAIR      92  66  41 CALM      29.79F HX  95
GILMER         FAIR      91  64  40 CALM      29.78F HX  93
MINEOLA        CLOUDY    93  70  46 CALM      29.77F HX  99
TYLER          FAIR      93  64  38 S5        29.78F HX  94
LONGVIEW       FAIR      92  72  51 CALM      29.76F HX  99
MARSHALL       FAIR      90  66  45 CALM      29.80S HX  92
ATHENS         FAIR      93  70  46 S5        29.77F HX  99
PALESTINE      FAIR      93  69  45 SW8       29.79F HX  98
JACKSONVILLE   FAIR      91  69  49 S5        29.81F HX  96
HENDERSON      FAIR      92  67  43 SW3       29.79F HX  95
CENTER         MOCLDY    91  68  46 CALM      29.78F HX  95
NACOGDOCHES      N/A     92  72  51 W7        29.78F HX  99
LUFKIN         FAIR      92  71  50 SW8       29.77F HX  98
$$

SUPPLEMENTAL OBSERVATIONS (NWS FORT WORTH AREA)

CITY           SKY/WX    TMP DP  RH WIND       PRES   REMARKS
CADDO GRASSLND   N/A     93  66  40 S6          N/A  HX  96
LBJ GRASSLAND    N/A     97  64  34 S7          N/A  HX  99
POSSUM KINGDOM   N/A    100  66  32 SE6G14      N/A  HX 104
GRANBURY         N/A    N/A N/A N/A SE12        N/A
COMANCHE         N/A     97  61  30 SE8         N/A  HX  97
MCGREGOR         N/A     97  63  32 SE6         N/A  HX  98
TEMPLE           N/A     97  64  34 S6          N/A  HX  99
LAKE LIMESTONE   N/A     97  66  36 SE3         N/A  HX 100
PALESTINE        N/A     95  72  46 S2          N/A  HX 103
$$

SUPPLEMENTAL OBSERVATIONS (NWS NORMAN AREA)

CITY           SKY/WX    TMP DP  RH WIND       PRES   REMARKS
GOODLETT         N/A     93  61  35 E9        29.79F HX  93
ODELL            N/A     94  62  34 SE10      29.80F HX  94
CROWELL          N/A     93  65  39 SE10      29.80F HX  95
KNOX CITY        N/A     94  66  38 SE6       29.79F HX  97
SEYMOUR          N/A     92  66  42 E7        29.79F HX  94
MILLERS CREEK    N/A     97  68  38 E6          N/A  HX 101
$$

SUPPLEMENTAL OBSERVATIONS (NWS SAN ANGELO AREA)

CITY           SKY/WX    TMP DP  RH WIND       PRES   REMARKS
WEINERT          N/A     96  65  35 E5        29.79F HX  99
HASKELL          N/A     97  57  26 SE2       29.79F HX  95
THROCKMORTON     N/A     99  69  37 SE9       29.79F HX 104
STAMFORD         N/A     98  65  34 E3        29.79F HX 101
CLYDE            N/A    100  61  27 S5        29.82F HX 100
HAMBY            N/A    102  59  24 SW5G14      N/A  HX 102
IVIE RESERVOIR   N/A    102  52  18 S10         N/A  HX 100
COLORADO BEND    N/A     99  57  25 S6G17       N/A  HX  97
$$

SUPPLEMENTAL OBSERVATIONS (NWS SHREVEPORT AREA)

CITY           SKY/WX    TMP DP  RH WIND       PRES   REMARKS
TEXARKANA        N/A     93  61  33 N6          N/A  HX  93
LINDEN           N/A     95  66  38 NE2         N/A  HX  98
CADDO LAKE       N/A     97  68  38 CALM        N/A  HX 101
LUFKIN           N/A     93  72  49 MISG        N/A  HX 100
N SABINE NF      N/A     95  70  43 MISG        N/A  HX 101
$$

SUPPLEMENTAL OBSERVATIONS ARE A COLLECTION OF AUTOMATED INSTRUMENTS
THAT ARE MAINTAINED BY A VARIETY OF FEDERAL AND STATE AGENCIES.
CERTAIN ELEMENTS...SUCH AS HUMIDITY VALUES AND SUSTAINED WIND
SPEEDS...MAY BE APPROXIMATED.





USA.gov is the U.S. government's official web portal to all federal, state and local government web resources and services.